FW6835 Weather Reports


Display with metric or nautical units.
time (UTC)temp
F
wind
direction
speed
MPH
gust
MPH
rain 1hr
in
rain 24hr
in
rain mn
in
humidity
%
barometer
mb
20260906111533 58 251 2.0 8.0 0.00 0.00 0.00 73 1028.3
20260906111026 59 176 2.0 8.0 0.00 0.00 0.00 70 1028.4
20260906110530 59 208 3.0 8.0 0.00 0.00 0.00 70 1028.4
20260906110025 59 205 2.0 9.0 0.00 0.00 0.00 71 1028.4
20260906105525 58 213 3.0 11.0 0.00 0.00 0.00 70 1028.4
20260906105024 58 229 4.0 11.0 0.00 0.00 0.00 71 1028.3
20260906104523 58 299 3.0 9.0 0.00 0.00 0.00 73 1028.4
20260906104023 58 222 3.0 9.0 0.00 0.00 0.00 75 1028.4
20260906103521 59 228 3.0 9.0 0.00 0.00 0.00 76 1028.5
20260906103020 58 253 3.0 9.0 0.00 0.00 0.00 80 1028.5
20260906102520 56 246 2.0 7.0 0.00 0.00 0.00 79 1028.5
20260906102019 56 254 3.0 8.0 0.00 0.00 0.00 77 1028.6
20260906101519 56 244 3.0 8.0 0.00 0.00 0.00 75 1028.5
20260906101018 57 232 1.0 4.0 0.00 0.00 0.00 74 1028.4
20260906100517 57 225 2.0 9.0 0.00 0.00 0.00 76 1028.4
20260906100016 57 262 3.0 9.0 0.00 0.00 0.00 77 1028.2
20260906095515 57 186 3.0 9.0 0.00 0.00 0.00 81 1028.2
20260906095015 56 160 0.0 5.0 0.00 0.00 0.00 84 1028.2
20260906094524 55 232 1.0 5.0 0.00 0.00 0.00 79 1028.2
20260906094012 56 259 2.0 6.0 0.00 0.00 0.00 78 1028.3
20260906093512 56 267 1.0 7.0 0.00 0.00 0.00 81 1028.3
20260906093012 55 183 1.0 6.0 0.00 0.00 0.00 83 1028.2
20260906092513 55 263 2.0 9.0 0.00 0.00 0.00 79 1028.3
20260906092011 55 183 2.0 9.0 0.00 0.00 0.00 79 1028.3
20260906091523 55 259 2.0 6.0 0.00 0.00 0.00 79 1028.4
20260906091009 55 246 1.0 8.0 0.00 0.00 0.00 80 1028.2
20260906090511 55 238 4.0 9.0 0.00 0.00 0.00 81 1028.3
20260906090009 55 223 2.0 5.0 0.00 0.00 0.00 84 1028.2
20260906085509 55 248 0.0 6.0 0.00 0.00 0.00 83 1028.2
20260906085012 55 280 1.0 6.0 0.00 0.00 0.00 82 1028.3
20260906084608 55 224 2.0 6.0 0.00 0.00 0.00 82 1028.1
20260906084006 55 236 2.0 6.0 0.00 0.00 0.00 83 1028.1
20260906083509 54 177 1.0 6.0 0.00 0.00 0.00 84 1028.1
20260906083009 54 213 1.0 4.0 0.00 0.00 0.00 84 1028.0
20260906082505 54 221 1.0 9.0 0.00 0.00 0.00 84 1027.9
20260906082006 54 244 3.0 12.0 0.00 0.00 0.00 83 1028.0
20260906081513 54 241 3.0 6.0 0.00 0.00 0.00 83 1027.8
20260906081005 54 169 2.0 11.0 0.00 0.00 0.00 84 1027.8
20260906080503 54 309 3.0 11.0 0.00 0.00 0.00 86 1027.7
20260906080002 53 245 3.0 6.0 0.00 0.00 0.00 85 1027.6
20260906075600 54 235 2.0 8.0 0.00 0.00 0.00 85 1027.6
20260906075100 53 177 3.0 8.0 0.00 0.00 0.00 86 1027.5
20260906074600 53 226 3.0 9.0 0.00 0.00 0.00 87 1027.5
20260906074058 53 227 3.0 9.0 0.00 0.00 0.00 86 1027.6
20260906073558 52 116 1.0 8.0 0.00 0.00 0.00 88 1027.5
20260906073057 52 250 2.0 8.0 0.00 0.00 0.00 89 1027.4
20260906072558 52 175 2.0 7.0 0.00 0.00 0.00 89 1027.3
20260906072056 52 235 2.0 7.0 0.00 0.00 0.00 89 1027.1
20260906071606 52 207 2.0 7.0 0.00 0.00 0.00 89 1027.0
20260906071157 52 207 1.0 6.0 0.00 0.00 0.00 89 1026.9
20260906070556 52 112 2.0 6.0 0.00 0.00 0.00 89 1026.9
20260906070054 52 215 2.0 7.0 0.00 0.00 0.00 89 1026.8
20260906065554 52 213 2.0 9.0 0.00 0.00 0.00 89 1026.8
20260906065054 52 170 1.0 9.0 0.00 0.00 0.00 89 1026.7
20260906064555 52 253 3.0 9.0 0.00 0.00 0.00 89 1026.7
20260906064051 52 297 4.0 9.0 0.00 0.00 0.00 89 1026.8
20260906063551 52 281 2.0 5.0 0.00 0.00 0.00 90 1026.6
20260906063051 51 215 1.0 9.0 0.00 0.00 0.00 90 1026.7
20260906062550 51 229 3.0 9.0 0.00 0.00 0.00 90 1026.6
20260906062052 51 186 1.0 9.0 0.00 0.00 0.00 90 1026.7
20260906061549 51 158 1.0 11.0 0.00 0.00 0.00 91 1026.5
20260906061047 51 191 2.0 6.0 0.00 0.00 0.00 91 1026.4
20260906060547 51 229 2.0 6.0 0.00 0.00 0.00 90 1026.3
20260906060046 51 283 2.0 7.0 0.00 0.00 0.00 90 1026.3
20260906055546 51 246 2.0 4.0 0.00 0.00 0.00 91 1026.3
20260906055045 51 244 1.0 6.0 0.00 0.00 0.00 91 1026.2
20260906054549 51 195 1.0 6.0 0.00 0.00 0.00 91 1026.1
20260906054045 51 234 1.0 5.0 0.00 0.00 0.00 91 1026.0
20260906053543 51 234 1.0 4.0 0.00 0.00 0.00 91 1026.1
20260906053042 51 186 1.0 4.0 0.00 0.00 0.00 91 1026.1
20260906052541 51 240 0.0 6.0 0.00 0.00 0.00 91 1026.0
20260906052041 51 125 2.0 6.0 0.00 0.00 0.00 91 1025.9
20260906051548 51 225 1.0 8.0 0.00 0.00 0.00 91 1026.0
20260906051042 51 187 2.0 8.0 0.00 0.00 0.00 91 1025.8
20260906050542 51 191 1.0 7.0 0.00 0.00 0.00 90 1025.9
20260906050058 51 240 2.0 6.0 0.00 0.00 0.00 90 1026.0
20260906045537 51 190 2.0 7.0 0.00 0.00 0.00 90 1025.9
20260906045037 51 194 1.0 8.0 0.00 0.00 0.00 90 1025.9
20260906044536 51 248 2.0 7.0 0.00 0.00 0.00 90 1025.9
20260906044036 51 193 1.0 8.0 0.00 0.00 0.00 90 1025.9
20260906043535 51 317 1.0 8.0 0.00 0.00 0.00 90 1025.8
20260906043034 51 197 1.0 6.0 0.00 0.00 0.00 90 1025.7
20260906042533 51 185 1.0 9.0 0.00 0.00 0.00 89 1025.6
20260906042033 51 226 1.0 9.0 0.00 0.00 0.00 89 1025.7
20260906041533 51 263 1.0 7.0 0.00 0.00 0.00 89 1025.7
20260906041032 51 185 2.0 7.0 0.00 0.00 0.00 89 1025.7
20260906040531 51 209 1.0 10.0 0.00 0.00 0.00 89 1025.6
20260906040035 51 240 3.0 10.0 0.00 0.00 0.00 89 1025.6
20260906035529 52 274 2.0 7.0 0.00 0.00 0.00 89 1025.4
20260906035029 52 175 2.0 8.0 0.00 0.00 0.00 89 1025.3
20260906034538 52 250 0.0 0.0 0.00 0.00 0.00 88 1025.3
20260906034027 52 201 0.0 0.0 0.00 0.00 0.00 88 1025.2
20260906033527 52 152 0.0 0.0 0.00 0.00 0.00 88 1025.3
20260906033029 52 229 0.0 2.0 0.00 0.00 0.00 88 1025.4
20260906032526 52 232 0.0 8.0 0.00 0.00 0.00 88 1025.2
20260906032026 52 244 1.0 8.0 0.00 0.00 0.00 88 1025.1
20260906031527 52 265 2.0 7.0 0.00 0.00 0.00 88 1025.2
20260906031025 52 245 1.0 7.0 0.00 0.00 0.00 88 1025.2
20260906030528 52 286 1.0 5.0 0.00 0.00 0.00 88 1025.1
20260906030023 52 234 2.0 5.0 0.00 0.00 0.00 87 1025.2
20260906025523 52 194 2.0 6.0 0.00 0.00 0.00 87 1025.2
20260906025023 52 196 2.0 6.0 0.00 0.00 0.00 87 1025.1
20260906024522 52 284 1.0 9.0 0.00 0.00 0.00 87 1025.0
20260906024021 52 227 4.0 9.0 0.00 0.00 0.00 87 1025.1
20260906023521 52 189 3.0 8.0 0.00 0.00 0.00 87 1025.0
20260906023025 53 185 3.0 9.0 0.00 0.00 0.00 87 1025.1
20260906022520 53 224 4.0 10.0 0.00 0.00 0.00 87 1025.1
20260906022020 53 231 2.0 10.0 0.00 0.00 0.00 87 1024.9
20260906021519 53 245 3.0 9.0 0.00 0.00 0.00 87 1024.8
20260906021018 53 209 1.0 9.0 0.00 0.00 0.00 87 1024.9
20260906020521 53 263 2.0 10.0 0.00 0.00 0.00 87 1024.9
20260906020018 53 190 1.0 4.0 0.00 0.00 0.00 87 1024.9
20260906015517 53 187 1.0 7.0 0.00 0.00 0.00 87 1024.7
20260906015018 53 199 1.0 7.0 0.00 0.00 0.00 87 1024.8
20260906014517 53 248 2.0 7.0 0.00 0.00 0.00 87 1024.8
20260906014015 53 231 2.0 10.0 0.00 0.00 0.00 86 1024.7
20260906013515 53 214 1.0 8.0 0.00 0.00 0.00 86 1024.6
20260906013015 53 200 1.0 8.0 0.00 0.00 0.00 86 1024.7
20260906012514 53 157 1.0 6.0 0.00 0.00 0.00 86 1024.6
20260906012014 53 236 2.0 7.0 0.00 0.00 0.00 87 1024.6
20260906011513 53 224 2.0 8.0 0.00 0.00 0.00 86 1024.6
20260906011012 53 238 2.0 6.0 0.00 0.00 0.00 86 1024.6
20260906010516 53 196 1.0 5.0 0.00 0.00 0.00 87 1024.6
20260906010014 53 209 1.0 5.0 0.00 0.00 0.00 86 1024.5
20260906005515 54 172 1.0 6.0 0.00 0.01 0.00 86 1024.5
20260906005011 54 191 0.0 8.0 0.00 0.01 0.00 87 1024.6
20260906004512 54 231 1.0 9.0 0.00 0.01 0.00 86 1024.6
20260906004010 54 181 4.0 10.0 0.00 0.01 0.00 86 1024.6
20260906003511 54 224 1.0 10.0 0.00 0.01 0.00 87 1024.6
20260906003009 54 246 3.0 10.0 0.00 0.01 0.00 87 1024.5
20260906002508 54 262 3.0 8.0 0.00 0.01 0.00 87 1024.4
20260906002008 54 242 3.0 9.0 0.00 0.01 0.00 87 1024.5
20260906001508 54 171 1.0 9.0 0.00 0.01 0.00 87 1024.3
20260906001007 54 303 3.0 7.0 0.00 0.01 0.00 87 1024.5
20260906000507 54 217 1.0 6.0 0.00 0.01 0.00 87 1024.5
20260906000007 54 191 2.0 6.0 0.00 0.01 0.00 87 1024.5
20260905235506 54 227 2.0 7.0 0.00 0.01 0.00 87 1024.5
20260905235006 54 256 2.0 8.0 0.00 0.01 0.00 87 1024.3
20260905234506 54 189 2.0 7.0 0.00 0.01 0.00 87 1024.3
20260905234007 54 175 0.0 7.0 0.00 0.01 0.00 87 1024.3
20260905233508 54 277 2.0 7.0 0.00 0.01 0.00 87 1024.3
20260905233003 54 216 2.0 7.0 0.00 0.01 0.00 88 1024.1
20260905232505 54 183 1.0 7.0 0.00 0.01 0.00 88 1024.3
20260905232003 54 202 1.0 4.0 0.00 0.01 0.00 88 1024.0
20260905231502 54 216 2.0 5.0 0.00 0.01 0.00 88 1024.1
20260905231004 55 178 1.0 5.0 0.00 0.01 0.00 88 1024.1
20260905230501 55 184 1.0 3.0 0.00 0.01 0.00 88 1023.9
20260905230100 55 206 0.0 4.0 0.00 0.01 0.00 88 1023.9
20260905225604 55 178 2.0 7.0 0.00 0.03 0.00 88 1024.0
20260905225102 55 215 1.0 7.0 0.00 0.03 0.00 88 1023.9
20260905224602 55 211 0.0 6.0 0.00 0.03 0.00 88 1023.8
20260905224056 55 224 1.0 6.0 0.00 0.03 0.00 88 1023.8
20260905223557 55 238 0.0 3.0 0.00 0.03 0.00 88 1023.7
20260905223056 55 183 0.0 9.0 0.00 0.03 0.00 88 1023.7
20260905222555 55 227 2.0 9.0 0.00 0.03 0.00 87 1023.6
20260905222055 55 254 1.0 4.0 0.00 0.03 0.00 87 1023.5
20260905221555 55 244 0.0 5.0 0.00 0.03 0.00 87 1023.6
20260905221055 55 248 1.0 5.0 0.00 0.03 0.00 86 1023.7
20260905220554 55 253 1.0 4.0 0.00 0.03 0.00 86 1023.5
20260905220053 55 210 0.0 4.0 0.00 0.03 0.00 86 1023.7
20260905215553 55 215 0.0 4.0 0.00 0.17 0.03 86 1023.6
20260905215052 55 227 0.0 7.0 0.00 0.17 0.03 85 1023.7
20260905214604 56 259 2.0 7.0 0.00 0.17 0.03 85 1023.6
20260905214051 56 242 1.0 7.0 0.00 0.17 0.03 85 1023.5
20260905213551 56 279 1.0 7.0 0.00 0.17 0.03 84 1023.3
20260905213050 56 201 1.0 5.0 0.00 0.17 0.03 84 1023.3
20260905212550 56 195 0.0 4.0 0.00 0.17 0.03 84 1023.3
20260905212050 56 209 0.0 4.0 0.00 0.17 0.03 85 1023.2
20260905211549 56 135 1.0 4.0 0.00 0.17 0.03 84 1023.2
20260905211049 56 224 2.0 5.0 0.00 0.17 0.03 84 1023.2
20260905210549 56 204 1.0 5.0 0.00 0.17 0.03 84 1023.3
20260905210049 56 163 0.0 5.0 0.00 0.17 0.03 83 1023.3
20260905205548 56 181 1.0 5.0 0.00 0.17 0.03 83 1023.3
20260905205051 56 244 2.0 6.0 0.00 0.17 0.03 83 1023.3
20260905204548 56 208 1.0 6.0 0.00 0.17 0.03 83 1023.1
20260905204047 56 247 2.0 7.0 0.00 0.17 0.03 83 1022.9
20260905203550 56 127 1.0 7.0 0.00 0.17 0.03 83 1023.1
20260905203047 56 304 3.0 8.0 0.00 0.17 0.03 83 1022.8
20260905202546 56 215 1.0 8.0 0.00 0.17 0.03 83 1022.9
20260905202049 56 199 0.0 9.0 0.00 0.17 0.03 83 1022.7
20260905201546 56 254 2.0 9.0 0.00 0.17 0.03 83 1022.9
20260905201046 57 223 0.0 7.0 0.00 0.17 0.03 83 1022.8
20260905200545 57 240 1.0 7.0 0.00 0.17 0.03 82 1022.6
20260905200047 57 197 1.0 4.0 0.00 0.17 0.03 82 1022.7
20260905195543 57 185 0.0 4.0 0.00 0.17 0.03 82 1022.6
20260905195043 57 229 1.0 4.0 0.00 0.17 0.03 82 1022.6
20260905194542 57 208 0.0 4.0 0.00 0.17 0.03 82 1022.4
20260905194042 57 212 1.0 5.0 0.00 0.17 0.03 82 1022.2
20260905193542 57 221 0.0 5.0 0.00 0.17 0.03 82 1022.2
20260905193042 57 227 1.0 7.0 0.00 0.17 0.03 82 1022.0
20260905192541 57 235 1.0 7.0 0.00 0.17 0.03 81 1022.1
20260905192042 57 188 2.0 5.0 0.00 0.17 0.03 81 1022.1
20260905191540 57 234 0.0 7.0 0.00 0.17 0.03 81 1022.1
20260905191041 57 213 1.0 7.0 0.00 0.17 0.03 80 1022.2
20260905190539 57 250 0.0 4.0 0.00 0.17 0.03 80 1022.2
20260905190039 58 239 0.0 8.0 0.00 0.17 0.03 80 1022.1
20260905185540 58 223 2.0 8.0 0.00 0.19 0.03 79 1022.1
20260905185038 58 258 1.0 8.0 0.00 0.19 0.03 78 1022.1
20260905184544 58 244 4.0 12.0 0.00 0.19 0.03 78 1021.9
20260905184038 59 159 1.0 6.0 0.00 0.19 0.03 76 1021.9
20260905183540 59 226 0.0 2.0 0.00 0.19 0.03 76 1021.7
20260905183038 59 227 0.0 3.0 0.00 0.19 0.03 75 1021.6
20260905182541 59 227 0.0 4.0 0.00 0.19 0.03 76 1021.5
20260905182036 59 303 1.0 4.0 0.00 0.19 0.03 75 1021.5
20260905181536 59 227 0.0 7.0 0.00 0.19 0.03 75 1021.5
20260905181035 60 229 2.0 7.0 0.00 0.19 0.03 73 1021.4
20260905180535 60 219 1.0 5.0 0.00 0.19 0.03 73 1021.1
20260905180034 60 136 1.0 6.0 0.00 0.19 0.03 70 1021.2
20260905175533 60 254 0.0 6.0 0.00 0.24 0.03 69 1021.0
20260905175033 60 252 2.0 7.0 0.00 0.24 0.03 68 1021.0
20260905174540 61 201 3.0 7.0 0.00 0.24 0.03 68 1020.9
20260905174031 61 243 2.0 6.0 0.00 0.24 0.03 68 1020.8
20260905173530 61 227 2.0 7.0 0.00 0.24 0.03 67 1020.8
20260905173030 61 254 2.0 8.0 0.00 0.24 0.03 67 1020.6
20260905172530 61 211 2.0 8.0 0.00 0.24 0.03 67 1020.6
20260905172032 61 227 2.0 11.0 0.00 0.24 0.03 67 1020.6
20260905171529 61 262 4.0 11.0 0.00 0.24 0.03 66 1020.5
20260905171028 61 192 2.0 10.0 0.00 0.24 0.03 66 1020.5
20260905170528 61 265 2.0 8.0 0.00 0.24 0.03 67 1020.5
20260905170030 62 223 3.0 14.0 0.00 0.24 0.03 66 1020.4
20260905165527 62 233 5.0 14.0 0.00 0.24 0.03 66 1020.4
20260905165028 62 180 3.0 10.0 0.00 0.24 0.03 65 1020.3
20260905164527 63 247 2.0 20.0 0.00 0.24 0.03 66 1020.4
20260905164027 63 188 3.0 20.0 0.00 0.24 0.03 64 1020.1
20260905163525 63 239 3.0 10.0 0.00 0.24 0.03 64 1020.1
20260905163025 63 206 4.0 11.0 0.00 0.24 0.03 65 1020.0
20260905162525 63 244 2.0 8.0 0.00 0.24 0.03 65 1020.1
20260905162024 63 205 2.0 12.0 0.00 0.24 0.03 65 1019.8
20260905161525 63 219 2.0 12.0 0.00 0.24 0.03 64 1019.9
20260905161024 63 217 3.0 11.0 0.00 0.24 0.03 64 1020.0
20260905160524 63 300 6.0 11.0 0.00 0.24 0.03 64 1019.7
20260905160040 63 279 4.0 14.0 0.00 0.24 0.03 66 1019.8
20260905155524 62 267 4.0 12.0 0.00 0.24 0.03 68 1019.9
20260905155023 62 271 3.0 9.0 0.00 0.24 0.03 67 1019.7
20260905154523 62 261 2.0 9.0 0.00 0.24 0.03 67 1019.7
20260905154022 63 243 2.0 12.0 0.00 0.24 0.03 66 1019.6
20260905153524 63 222 4.0 13.0 0.00 0.24 0.03 65 1019.7
20260905153024 63 288 6.0 12.0 0.00 0.24 0.03 64 1019.6
20260905152522 63 238 4.0 12.0 0.00 0.24 0.03 66 1019.6
20260905152025 63 268 4.0 15.0 0.00 0.24 0.03 66 1019.4
20260905151521 63 242 4.0 15.0 0.00 0.24 0.03 65 1019.4
20260905151024 63 178 3.0 11.0 0.00 0.24 0.03 67 1019.4
20260905150522 62 276 2.0 13.0 0.00 0.24 0.03 67 1019.5
20260905150026 63 246 5.0 13.0 0.00 0.24 0.03 64 1019.4
20260905145521 63 215 2.0 12.0 0.00 0.24 0.03 66 1019.4
20260905145021 62 257 4.0 15.0 0.00 0.24 0.03 66 1019.4
20260905144539 62 242 5.0 15.0 0.00 0.24 0.03 66 1019.3
20260905144020 62 248 4.0 11.0 0.00 0.24 0.03 67 1019.4
20260905143519 62 242 3.0 10.0 0.00 0.24 0.03 66 1019.4
20260905143023 63 234 2.0 10.0 0.00 0.24 0.03 65 1019.5
20260905142518 63 119 4.0 12.0 0.00 0.24 0.03 65 1019.4
20260905142022 63 305 5.0 14.0 0.00 0.24 0.03 64 1019.4
20260905141530 64 174 5.0 16.0 0.00 0.24 0.03 65 1019.3
20260905141018 64 271 5.0 16.0 0.00 0.24 0.03 64 1019.4
20260905140518 65 279 6.0 14.0 0.00 0.24 0.03 64 1019.4
20260905140018 65 266 3.0 14.0 0.00 0.24 0.03 65 1019.4
20260905135518 64 218 3.0 13.0 0.00 0.24 0.03 65 1019.5
20260905135017 64 197 3.0 16.0 0.00 0.24 0.03 69 1019.3
20260905134518 62 293 5.0 16.0 0.00 0.24 0.03 67 1019.3
20260905134017 63 274 2.0 12.0 0.00 0.24 0.03 66 1019.3
20260905133517 63 306 3.0 11.0 0.00 0.24 0.03 66 1019.2
20260905133019 64 260 4.0 12.0 0.00 0.24 0.03 65 1019.2
20260905132520 63 218 4.0 14.0 0.00 0.24 0.03 65 1019.2
20260905132017 64 294 6.0 14.0 0.00 0.24 0.03 64 1019.2
20260905131516 64 268 6.0 14.0 0.00 0.24 0.03 63 1019.1
20260905131016 65 179 4.0 11.0 0.00 0.24 0.03 65 1019.2
20260905130515 65 261 5.0 16.0 0.00 0.24 0.03 66 1019.1
20260905130015 64 118 4.0 16.0 0.00 0.24 0.03 69 1019.1
20260905125515 64 227 5.0 13.0 0.00 0.24 0.03 64 1019.1
20260905125015 65 335 5.0 13.0 0.00 0.24 0.03 65 1019.2
20260905124515 64 227 5.0 16.0 0.00 0.24 0.03 67 1019.1
20260905124013 64 319 6.0 16.0 0.00 0.24 0.03 66 1019.3
20260905123612 64 232 4.0 11.0 0.00 0.24 0.03 67 1019.2
20260905123012 64 313 5.0 12.0 0.00 0.24 0.03 65 1019.1
20260905122512 64 229 3.0 18.0 0.00 0.24 0.03 66 1019.1
20260905122011 63 279 7.0 16.0 0.00 0.24 0.03 67 1019.2
20260905121512 63 287 5.0 14.0 0.00 0.24 0.03 69 1019.3
20260905121012 63 323 6.0 14.0 0.00 0.24 0.03 67 1019.4
20260905120514 62 273 5.0 14.0 0.00 0.24 0.03 69 1019.3
20260905120011 62 242 5.0 13.0 0.00 0.24 0.03 67 1019.3
20260905115512 64 215 4.0 13.0 0.00 0.24 0.03 65 1019.4
20260905115014 64 315 7.0 13.0 0.00 0.24 0.03 65 1019.2
20260905114509 64 234 4.0 14.0 0.00 0.24 0.03 71 1019.2
20260905114008 63 227 5.0 14.0 0.00 0.24 0.03 68 1019.3
20260905113507 63 192 7.0 15.0 0.00 0.24 0.03 67 1019.4
20260905113008 63 215 5.0 13.0 0.00 0.24 0.03 70 1019.3
20260905112507 61 200 3.0 13.0 0.00 0.24 0.03 72 1019.4
20260905112010 62 190 5.0 10.0 0.00 0.24 0.03 69 1019.4